Miscellaneous Local Product
Issued by NWS Hastings, NE

Home | Current Version | Previous Version | Graphics & Text | Print | Product List | Glossary On
Versions: 1 2 3 4 5 6 7 8 9 10 11 12 13 14 15 16 17 18 19 20 21 22 23 24 25 26 27 28 29 30 31 32 33 34 35 36 37 38 39 40 41 42 43 44 45 46 47 48 49 50
709
AXUS43 KGID 061802
MISGRI

GID CWA HOURLY WEATHER ROUNDUP
NATIONAL WEATHER SERVICE HASTINGS NE
1200 PM CST SAT FEB 06 2016

NOTE: "FAIR" INDICATES FEW OR NO CLOUDS BELOW 12,000 FEET WITH NO
SIGNIFICANT WEATHER AND/OR OBSTRUCTIONS TO VISIBILITY.

...SOUTH CENTRAL NEBRASKA...

CITY           SKY/WX    TMP DP  RH WIND       PRES   REMARKS
GRAND ISLAND   SUNNY     31  20  63 SW13      30.17F WCI  21
HASTINGS       SUNNY     28  18  66 SW7       30.19F WCI  21
ORD            SUNNY     33  21  61 SW10      30.11F WCI  25
YORK           SUNNY     28  23  80 SW13      30.20F WCI  18
AURORA         SUNNY     27  20  76 SW14      30.19S WCI  15
LEXINGTON      SUNNY     34  21  60 W13       30.17F WCI  25
HOLDREGE       SUNNY     28  17  64 SW8       30.20S WCI  20
HEBRON         SUNNY     31  24  76 SW8       30.25F WCI  24

...NEBRASKA PANHANDLE...

CITY           SKY/WX    TMP DP  RH WIND       PRES   REMARKS
CHADRON        CLOUDY    36  23  59 SW8       30.09F WCI  30
ALLIANCE       CLOUDY    33  25  72 W16       30.09F WCI  23
SCOTTSBLUFF    CLOUDY    39  23  52 NW22G29   30.12F WCI  29
SIDNEY         CLOUDY    36  23  59 W8        30.15F WCI  30

...WESTERN AND NORTH CENTRAL NEBRASKA...

CITY           SKY/WX    TMP DP  RH WIND       PRES   REMARKS
VALENTINE      SUNNY     42  25  50 W17       30.02F
AINSWORTH      SUNNY     45  26  47 W14       30.02F
ONEILL         SUNNY     36  23  58 SW12      30.06F WCI  28
BROKEN BOW     SUNNY     33  21  61 W13       30.10F WCI  24
IMPERIAL       CLOUDY    31  17  56 W10       30.18F WCI  22
NORTH PLATTE   CLOUDY    30  18  60 W14       30.15F WCI  19
MCCOOK         SUNNY     28  16  60 W12       30.22F WCI  18

...EASTERN NEBRASKA...

CITY           SKY/WX    TMP DP  RH WIND       PRES   REMARKS
NORFOLK        SUNNY     34  23  64 S15       30.09F WCI  24
SO SIOUX CITY  SUNNY     31  25  78 SE6       30.13F WCI  25
TEKAMAH        SUNNY     29  25  85 SE10      30.18F WCI  20
COLUMBUS       SUNNY     36  19  51 SW12      30.16F WCI  27
ALBION         SUNNY     32  22  67 S9        30.13F WCI  24
OMAHA EPPLEY   SUNNY     34  27  75 SW13      30.21F WCI  25
OFFUTT AFB     SUNNY     36  28  72 SW13      30.21F WCI  27
MILLARD        SUNNY     35  27  73 SW7       30.22F WCI  29
LINCOLN        SUNNY     33  25  72 SW8       30.24F WCI  26
NEBRASKA CITY  SUNNY     34  30  85 W14G20    30.24F WCI  25
BEATRICE       SUNNY     36  28  73 SW13      30.25F WCI  27
FALLS CITY     SUNNY     43  30  60 SW12      30.25F

...NORTHERN KANSAS...

CITY           SKY/WX    TMP DP  RH WIND       PRES   REMARKS
GOODLAND       CLOUDY    40  20  44 SW13      30.21F WCI  32
HILL CITY      SUNNY     35  22  58 SW9       30.26F WCI  28
NORTON         CLEAR     28  16  59 SW6       30.22F WCI  22
PHILLIPSBURG   MOSUNNY   32  19  59 CALM      30.26F
BELOIT         SUNNY     36  21  55 W7        30.28F WCI  30
HAYS           SUNNY     32  16  51 W13       30.30F WCI  22
RUSSELL        SUNNY     32  23  69 SW10      30.28F WCI  24
CONCORDIA      SUNNY     40  28  62 SW15      30.27F WCI  32
SALINA         SUNNY     45  27  49 SW9       30.31F
TOPEKA         SUNNY     42  30  62 SW6       30.30F



USA.gov is the U.S. government's official web portal to all federal, state and local government web resources and services.